Location: Chuathbaluk
(61.5726°N, 159.2454°W)
Time: 22:45:53
(UTC+00:00)

Transit 2A - Pass Details

Date: 27 November 2020
Orbit: 598 x 960 km, 66.7° (Epoch: 20 January)

Event Time Altitude Azimuth Distance (km) Brightness Sun altitude
Rises 13:31:12 0° 309° (NW) 3,382 - -38.6°
Reaches altitude 10° 13:34:13 10° 296° (WNW) 2,376 - -38.3°
Maximum altitude 13:38:18 22° 247° (WSW) 1,595 - -37.9°
Drops below altitude 10° 13:42:05 10° 197° (SSW) 2,181 - -37.5°
Sets 13:44:44 0° 182° (S) 3,034 - -37.2°
